EW7826 Weather Reports


time (UTC)temp
C
wind
direction
speed
KPH
gust
KPH
rain 1hr
cm
rain 24hr
cm
rain mn
cm
humidity
%
barometer
mb
20260508114817 10 0.0 0.0 0.00 0.00 0.00 86 1013.9
20260508113817 10 0.0 1.6 0.00 0.00 0.00 86 1013.9
20260508112818 10 0.0 0.0 0.00 0.00 0.00 86 1013.8
20260508111818 10 0.0 0.0 0.00 0.00 0.00 86 1013.7
20260508110817 10 0.0 0.0 0.00 0.00 0.00 86 1013.5
20260508105817 10 0.0 0.0 0.00 0.00 0.00 86 1013.5
20260508104817 10 0.0 0.0 0.00 0.00 0.00 86 1013.6
20260508103817 10 0.0 0.0 0.00 0.00 0.00 86 1013.5
20260508102837 10 0.0 0.0 0.00 0.00 0.00 86 1013.5
20260508101817 10 0.0 0.0 0.00 0.00 0.00 86 1013.5
20260508100837 10 0.0 0.0 0.00 0.00 0.00 86 1013.4
20260508095817 10 0.0 0.0 0.00 0.00 0.00 86 1013.2
20260508094816 10 0.0 0.0 0.00 0.00 0.00 86 1013.3
20260508093817 10 0.0 0.0 0.00 0.00 0.00 86 1013.2
20260508092817 10 0.0 0.0 0.00 0.00 0.00 86 1013.2
20260508091817 10 0.0 0.0 0.00 0.00 0.00 86 1013.2
20260508090817 10 0.0 0.0 0.00 0.00 0.00 86 1013.3
20260508085857 10 0.0 0.0 0.00 0.00 0.00 86 1013.3
20260508084817 10 0.0 0.0 0.00 0.00 0.00 86 1013.2
20260508083817 10 0.0 0.0 0.00 0.00 0.00 86 1013.3
20260508082816 11 0.0 0.0 0.00 0.00 0.00 86 1013.4
20260508081817 11 0.0 0.0 0.00 0.00 0.00 86 1013.5
20260508080817 11 0.0 0.0 0.00 0.00 0.00 86 1013.4
20260508075816 11 293 1.6 3.2 0.00 0.00 0.00 86 1013.3
20260508074817 11 293 1.6 3.2 0.00 0.00 0.00 86 1013.4
20260508073816 11 0.0 0.0 0.00 0.00 0.00 86 1013.4
20260508072817 10 0.0 0.0 0.00 0.00 0.00 86 1013.6
20260508071817 11 0.0 0.0 0.00 0.00 0.00 86 1013.5
20260508070817 11 0.0 0.0 0.00 0.00 0.00 86 1013.6
20260508065817 11 0.0 0.0 0.00 0.00 0.00 86 1013.5
20260508064816 11 0.0 0.0 0.00 0.00 0.00 86 1013.5
20260508063817 11 0.0 0.0 0.00 0.00 0.00 86 1013.6
20260508062816 11 0.0 0.0 0.00 0.00 0.00 86 1013.6
20260508061816 11 0.0 0.0 0.00 0.00 0.00 86 1013.5
20260508060837 11 0.0 0.0 0.00 0.00 0.00 86 1013.7
20260508055817 11 0.0 0.0 0.00 0.00 0.00 85 1013.8
20260508054817 11 0.0 0.0 0.00 0.00 0.00 85 1013.9
20260508053816 11 0.0 0.0 0.00 0.00 0.00 85 1013.8
20260508052817 11 0.0 0.0 0.00 0.00 0.00 85 1013.8
20260508051816 12 0.0 0.0 0.00 0.00 0.00 84 1013.8
20260508050816 12 0.0 0.0 0.00 0.00 0.00 82 1013.8
20260508045817 13 0.0 0.0 0.00 0.00 0.00 76 1013.7
20260508044817 13 0.0 0.0 0.00 0.00 0.00 75 1013.7
20260508043816 13 0.0 0.0 0.00 0.00 0.00 74 1013.7
20260508042837 13 0.0 0.0 0.00 0.00 0.00 74 1013.8
20260508041817 13 0.0 0.0 0.00 0.00 0.00 74 1013.8
20260508040817 13 0.0 0.0 0.00 0.00 0.00 75 1013.9
20260508035837 13 0.0 0.0 0.00 0.00 0.00 76 1013.9
20260508034836 13 0.0 0.0 0.00 0.00 0.00 78 1013.8
20260508033816 13 0.0 0.0 0.00 0.00 0.00 77 1013.7
20260508032816 13 0.0 0.0 0.00 0.00 0.00 77 1013.8
20260508031816 13 0.0 0.0 0.00 0.00 0.00 75 1013.7
20260508030816 14 0.0 0.0 0.00 0.00 0.00 74 1013.8
20260508025816 14 0.0 0.0 0.00 0.00 0.00 73 1013.8
20260508024816 15 0.0 0.0 0.00 0.00 0.00 70 1013.9
20260508023816 16 0.0 0.0 0.00 0.00 0.00 66 1014.1
20260508022816 16 0.0 0.0 0.00 0.00 0.00 63 1014.0
20260508021816 16 0.0 0.0 0.00 0.00 0.00 62 1014.0
20260508020816 16 0.0 0.0 0.00 0.00 0.00 61 1014.0
20260508015816 17 0.0 0.0 0.00 0.00 0.00 61 1014.1
20260508014816 17 0.0 0.0 0.00 0.00 0.00 62 1014.0
20260508013816 17 0.0 0.0 0.00 0.00 0.00 60 1014.0
20260508012816 17 0.0 0.0 0.00 0.00 0.00 61 1014.2
20260508011816 17 0.0 0.0 0.00 0.00 0.00 60 1014.4
20260508010816 17 0.0 0.0 0.00 0.00 0.00 60 1014.5
20260508005816 17 0.0 0.0 0.00 0.00 0.00 63 1014.6
20260508004816 17 0.0 0.0 0.00 0.00 0.00 63 1014.7
20260508003816 17 0.0 0.0 0.00 0.00 0.00 63 1014.6
20260508002816 17 0.0 0.0 0.00 0.00 0.00 64 1014.7
20260508001816 16 0.0 0.0 0.00 0.00 0.00 63 1014.8
20260508000816 17 0.0 0.0 0.00 0.00 0.00 62 1014.9
20260507234816 16 0.0 1.6 0.00 0.00 0.00 63 1015.0
20260507233816 16 0.0 0.0 0.00 0.00 0.00 64 1015.0
20260507232816 16 0.0 0.0 0.00 0.00 0.00 65 1015.1
20260507231816 16 0.0 0.0 0.00 0.00 0.00 67 1015.1
20260507230836 16 0.0 0.0 0.00 0.00 0.00 67 1015.1
20260507225816 16 0.0 0.0 0.00 0.00 0.00 67 1015.3
20260507224815 15 0.0 0.0 0.00 0.00 0.00 68 1015.5
20260507223816 15 0.0 0.0 0.00 0.00 0.00 66 1015.5
20260507222816 15 0.0 0.0 0.00 0.00 0.00 68 1015.6
20260507221816 15 0.0 0.0 0.00 0.00 0.00 69 1015.8
20260507220816 15 0.0 0.0 0.00 0.00 0.00 69 1015.8
20260507215816 15 0.0 0.0 0.00 0.00 0.00 70 1015.9
20260507214815 14 315 1.6 4.8 0.00 0.00 0.00 72 1015.9
20260507213816 14 0.0 3.2 0.00 0.00 0.00 73 1016.0
20260507212815 14 0 1.6 6.4 0.00 0.00 0.00 77 1016.2
20260507211815 14 0.0 0.0 0.00 0.00 0.00 77 1016.3
20260507210836 14 0.0 0.0 0.00 0.00 0.00 79 1016.4
20260507205815 13 0.0 4.8 0.00 0.00 0.00 80 1016.5
20260507204816 13 0.0 0.0 0.00 0.00 0.00 81 1016.5
20260507203816 13 315 6.4 9.7 0.00 0.00 0.00 79 1016.7
20260507202816 13 0.0 0.0 0.00 0.00 0.00 76 1016.8
20260507201815 13 0.0 0.0 0.00 0.00 0.00 77 1016.9
20260507200815 13 315 1.6 4.8 0.00 0.00 0.00 77 1016.9
20260507195816 15 0.0 0.0 0.00 0.00 0.00 75 1016.8
20260507194856 14 0.0 6.4 0.00 0.00 0.00 74 1016.9
20260507193815 14 0 3.2 8.0 0.00 0.00 0.00 71 1016.9
20260507192815 15 0.0 0.0 0.00 0.00 0.00 69 1016.8
20260507191815 15 0.0 0.0 0.00 0.00 0.00 70 1016.9
20260507190816 14 0.0 0.0 0.00 0.00 0.00 70 1016.9
20260507185815 14 0.0 1.6 0.00 0.00 0.00 73 1017.0
20260507184816 14 0.0 0.0 0.00 0.00 0.00 72 1017.0
20260507183815 14 0.0 1.6 0.00 0.00 0.00 74 1017.0
20260507182815 13 203 3.2 8.0 0.00 0.00 0.00 76 1017.1
20260507181856 13 0.0 0.0 0.00 0.00 0.00 77 1017.0
20260507180816 12 0.0 12.9 0.00 0.00 0.00 80 1017.0
20260507175815 12 0.0 0.0 0.00 0.00 0.00 81 1017.3
20260507174815 12 0.0 0.0 0.00 0.00 0.00 81 1017.5
20260507173815 12 0.0 0.0 0.00 0.00 0.00 80 1017.5
20260507172836 12 0.0 0.0 0.00 0.00 0.00 79 1017.5
20260507171815 12 315 1.6 6.4 0.00 0.00 0.00 81 1017.5
20260507170815 12 0.0 0.0 0.00 0.00 0.00 80 1017.5
20260507165815 12 180 3.2 6.4 0.00 0.00 0.00 79 1017.5
20260507164815 12 0.0 0.0 0.00 0.00 0.00 79 1017.5
20260507163816 12 270 3.2 6.4 0.00 0.00 0.00 80 1017.6
20260507162817 12 0.0 0.0 0.00 0.00 0.00 81 1017.4
20260507161837 12 0.0 0.0 0.00 0.00 0.00 81 1017.5
20260507160817 11 0.0 0.0 0.00 0.00 0.00 83 1017.6
20260507155818 11 0.0 0.0 0.00 0.00 0.00 84 1017.8
20260507154817 11 0.0 0.0 0.00 0.00 0.00 84 1017.8
20260507153837 11 0.0 0.0 0.00 0.00 0.00 84 1017.8
20260507152817 11 180 3.2 11.3 0.00 0.00 0.00 84 1017.9
20260507151838 11 0.0 0.0 0.00 0.00 0.00 85 1017.9
20260507150817 11 225 4.8 9.7 0.00 0.00 0.00 85 1017.7
20260507145817 11 225 3.2 8.0 0.00 0.00 0.00 85 1017.7
20260507144817 11 0.0 0.0 0.00 0.00 0.00 85 1017.8
20260507143817 11 158 1.6 6.4 0.00 0.00 0.00 85 1017.6
20260507142817 11 0.0 0.0 0.00 0.00 0.00 85 1017.6
20260507141817 11 0.0 3.2 0.00 0.00 0.00 86 1017.7
20260507140817 11 0.0 0.0 0.00 0.00 0.00 86 1017.6
20260507135817 10 0.0 0.0 0.00 0.00 0.00 86 1017.6
20260507134817 10 0.0 0.0 0.00 0.00 0.00 87 1017.5
20260507133817 10 0.0 0.0 0.00 0.00 0.00 87 1017.5
20260507132817 10 0.0 0.0 0.00 0.00 0.00 86 1017.5
20260507131817 10 0.0 0.0 0.00 0.00 0.00 86 1017.4
20260507130817 10 0.0 0.0 0.00 0.00 0.00 86 1017.5
20260507125817 10 0.0 0.0 0.00 0.00 0.00 86 1017.4
20260507124817 10 0.0 0.0 0.00 0.00 0.00 86 1017.4
20260507123817 10 0.0 0.0 0.00 0.00 0.00 86 1017.4
20260507122817 10 0.0 0.0 0.00 0.00 0.00 86 1017.4
20260507121817 10 0.0 0.0 0.00 0.00 0.00 86 1017.5
20260507120817 10 0.0 0.0 0.00 0.00 0.00 86 1017.5
20260507115817 10 0.0 0.0 0.00 0.00 0.00 86 1017.3